Weather in Zelenoborskoye

Russia / Kurgan Oblast     56°20′35″N   63°56′39″E
temp.,
°C
wind,
m/s
gust,
m/s
humid.,
%
clouds,
%
prec.,
mm/h
press.,
hPa
HPBL,
m
2 march, tue
tue223:00−20wsw1210098 0.1 101720
02:00−21wsw2310086 0.0 101620
05:00−22sw339944 0.0 101523
08:00−22ssw349912 0.0 101356
11:00−16sw479547 0.0 1012283
14:00−12ssw589268 0.0 1010374
17:00−11ssw5109277 0.0 1008409
20:00−14s61294100 0.0 1006313
3 march, wed
wed323:00−14s51194100 0.0 1004303
02:00−14s51095100 0.1 1003282
05:00−11s51095100 0.4 1002359
08:00−11ssw61094100 0.2 1001300
11:00−8ssw61193100 0.3 1000459
14:00−4sw71093100 0.4 999633
17:00−3sw6118999 0.5 999557
20:00−6ssw5119244 0.0 1000258
4 march, thu
thu423:00−8sw479436 0.0 1000126
02:00−8ssw349592 0.0 99953
05:00−9ssw339595 0.0 99937
08:00−9sw2395100 0.0 99741
11:00−6wsw469350 0.0 996271
14:00−3wsw589081 0.0 996657
17:00−4wsw6109491 0.1 997714
20:00−8wsw6128698 0.2 999311
5 march, fri
fri523:00−11wsw5128851 0.2 1000247
02:00−12sw49916 0.0 1000144
05:00−10ssw6129552 0.3 1000374
08:00−6ssw81495100 1.8 997626
11:00−2sw10158395 1.9 9961101
14:000wsw8137567 0.0 9981227
17:00−1sw4108583 0.0 1000495
20:00−1ssw4997100 1.4 1000462
6 march, sat
sat623:00−2sw41096100 2.1 999336
02:00−2wsw3798100 1.6 998334
05:00−6wnw81386100 3.3 1001635
08:00−13w7148922 0.0 1006369
11:00−11w7128611 0.0 1008581
14:00−9w7118442 0.0 1009772
17:00−9w698770 0.1 1011776
20:00−14wsw3593100 0.0 101291